Location: ??????
(55.2000°N, 38.3000°E)
Time: 00:41:18
(UTC+00:00)

Cosmos 2233 Rocket - Pass Details

Date: 15 November 2025
Orbit: 952 x 989 km, 82.9° (Epoch: 12 December)

Event Time Altitude Azimuth Distance (km) Brightness Sun altitude
Rises 02:37:49 0° 346° (NNW) 3,714 6.9 -19.9°
Reaches altitude 10° 02:40:27 10° 340° (NNW) 2,758 6.1 -19.5°
Maximum altitude 02:46:22 44° 271° (W) 1,337 4.2 -18.7°
Drops below altitude 10° 02:52:13 10° 202° (SSW) 2,721 6.2 -17.8°
Sets 02:54:48 0° 196° (SSW) 3,658 6.9 -17.5°
